• Em Portugal
  • Lista de países
  • Para 7 dias
  • Temperatura da água
  • Mapas de satélite
  • Mapa do tempo
  • Widgets de tempo
  • user-avatar
    Iniciar Sessão

    Previsão horária em Nashavar

    Hoje, 21 Junho, Quinta-feira

    Tempo Temperatura Precipitação Vento Pressão Humidade
    00:00 +36°C° 0 mm 1 m/s 724 mmHg 28%
    01:00 +35°C° 0 mm 1 m/s 724 mmHg 29%
    02:00 +35°C° 0 mm 1 m/s 724 mmHg 30%
    03:00 +34°C° 0 mm 1 m/s 724 mmHg 30%
    04:00 +33°C° 0 mm 1 m/s 724 mmHg 31%
    05:00 +32°C° 0 mm 1 m/s 724 mmHg 34%
    06:00 +33°C° 0 mm 1 m/s 724 mmHg 31%
    07:00 +35°C° 0 mm 2 m/s 725 mmHg 28%
    08:00 +36°C° 0 mm 2 m/s 725 mmHg 25%
    09:00 +37°C° 0 mm 2 m/s 725 mmHg 23%
    10:00 +39°C° 0 mm 2 m/s 725 mmHg 20%
    11:00 +40°C° 0 mm 2 m/s 725 mmHg 19%
    12:00 +40°C° 0 mm 2 m/s 724 mmHg 18%
    13:00 +41°C° 0 mm 2 m/s 724 mmHg 17%
    14:00 +42°C° 0 mm 1 m/s 723 mmHg 16%
    15:00 +42°C° 0 mm 2 m/s 723 mmHg 17%
    16:00 +42°C° 0 mm 2 m/s 723 mmHg 19%
    17:00 +43°C° 0 mm 3 m/s 722 mmHg 21%
    18:00 +41°C° 0 mm 2 m/s 723 mmHg 23%
    19:00 +40°C° 0 mm 2 m/s 723 mmHg 25%
    20:00 +40°C° 0 mm 1 m/s 723 mmHg 27%
    21:00 +39°C° 0 mm 1 m/s 723 mmHg 27%
    22:00 +39°C° 0 mm 1 m/s 723 mmHg 28%
    23:00 +37°C° 0 mm 1 m/s 723 mmHg 28%

    Amanhã, 22 Junho, Sexta-feira

    Tempo Temperatura Precipitação Vento Pressão Humidade
    00:00 +36°C° 0,2 mm 1 m/s 723 mmHg 30%
    01:00 +36°C° 0,2 mm 1 m/s 723 mmHg 31%
    02:00 +36°C° 0,2 mm 2 m/s 723 mmHg 32%
    03:00 +35°C° 0,2 mm 2 m/s 723 mmHg 34%
    04:00 +34°C° 0,2 mm 1 m/s 723 mmHg 35%
    05:00 +33°C° 0,2 mm 1 m/s 723 mmHg 37%
    06:00 +34°C° 0,1 mm 1 m/s 723 mmHg 33%
    07:00 +36°C° 0,1 mm 2 m/s 723 mmHg 30%
    08:00 +37°C° 0,1 mm 2 m/s 723 mmHg 26%
    09:00 +38°C° 0 mm 2 m/s 723 mmHg 25%
    10:00 +39°C° 0 mm 2 m/s 723 mmHg 24%
    11:00 +40°C° 0 mm 2 m/s 723 mmHg 22%
    12:00 +41°C° 0 mm 2 m/s 723 mmHg 22%
    13:00 +41°C° 0 mm 2 m/s 723 mmHg 21%
    14:00 +43°C° 0 mm 3 m/s 722 mmHg 21%
    15:00 +43°C° 0,1 mm 3 m/s 722 mmHg 21%
    16:00 +42°C° 0,1 mm 2 m/s 722 mmHg 21%
    17:00 +42°C° 0,1 mm 2 m/s 722 mmHg 21%
    18:00 +41°C° 0,2 mm 2 m/s 722 mmHg 23%
    19:00 +40°C° 0,2 mm 2 m/s 722 mmHg 26%
    20:00 +39°C° 0,2 mm 2 m/s 722 mmHg 28%
    21:00 +38°C° 0,7 mm 2 m/s 723 mmHg 31%
    22:00 +36°C° 0,7 mm 3 m/s 723 mmHg 35%
    23:00 +35°C° 0,7 mm 3 m/s 723 mmHg 38%

    Depois de amanhã, 23 Junho, Sábado

    Tempo Temperatura Precipitação Vento Pressão Humidade
    00:00 +34°C° 0,4 mm 3 m/s 723 mmHg 40%
    01:00 +34°C° 0,4 mm 3 m/s 723 mmHg 42%
    02:00 +33°C° 0,4 mm 3 m/s 723 mmHg 44%
    03:00 +33°C° 0,2 mm 3 m/s 723 mmHg 43%
    04:00 +32°C° 0,2 mm 2 m/s 723 mmHg 43%
    05:00 +32°C° 0,2 mm 2 m/s 723 mmHg 43%
    06:00 +34°C° 0 mm 2 m/s 723 mmHg 39%
    07:00 +34°C° 0 mm 1 m/s 723 mmHg 36%
    08:00 +34°C° 0 mm 1 m/s 724 mmHg 33%
    09:00 +36°C° 0 mm 1 m/s 724 mmHg 31%
    10:00 +38°C° 0 mm 2 m/s 724 mmHg 28%
    11:00 +39°C° 0 mm 2 m/s 724 mmHg 25%
    12:00 +40°C° 0 mm 2 m/s 723 mmHg 24%
    13:00 +41°C° 0 mm 2 m/s 723 mmHg 23%
    14:00 +41°C° 0 mm 2 m/s 722 mmHg 22%
    15:00 +42°C° 0 mm 2 m/s 722 mmHg 22%
    16:00 +42°C° 0 mm 2 m/s 722 mmHg 22%
    17:00 +42°C° 0 mm 2 m/s 721 mmHg 22%
    18:00 +41°C° 0,1 mm 2 m/s 722 mmHg 24%
    19:00 +41°C° 0,1 mm 2 m/s 722 mmHg 26%
    20:00 +40°C° 0,1 mm 1 m/s 722 mmHg 28%
    21:00 +39°C° 0,2 mm 1 m/s 722 mmHg 29%
    22:00 +38°C° 0,2 mm 2 m/s 722 mmHg 31%
    23:00 +37°C° 0,2 mm 2 m/s 722 mmHg 32%

    24 Junho, Domingo

    Tempo Temperatura Precipitação Vento Pressão Humidade
    00:00 +37°C° 0,2 mm 2 m/s 722 mmHg 33%
    01:00 +36°C° 0,2 mm 2 m/s 722 mmHg 35%
    02:00 +35°C° 0,2 mm 2 m/s 722 mmHg 36%
    03:00 +35°C° 0 mm 2 m/s 722 mmHg 36%
    04:00 +35°C° 0 mm 2 m/s 722 mmHg 37%
    05:00 +34°C° 0 mm 2 m/s 722 mmHg 37%
    06:00 +35°C° 0 mm 2 m/s 722 mmHg 34%
    07:00 +36°C° 0 mm 2 m/s 722 mmHg 31%
    08:00 +37°C° 0 mm 2 m/s 722 mmHg 28%
    09:00 +39°C° 0 mm 2 m/s 722 mmHg 25%
    10:00 +40°C° 0 mm 2 m/s 722 mmHg 22%
    11:00 +41°C° 0 mm 2 m/s 722 mmHg 20%
    12:00 +42°C° 0 mm 2 m/s 721 mmHg 19%
    13:00 +43°C° 0 mm 2 m/s 721 mmHg 18%
    14:00 +45°C° 0 mm 2 m/s 721 mmHg 17%
    15:00 +45°C° 0 mm 2 m/s 720 mmHg 17%
    16:00 +45°C° 0 mm 2 m/s 720 mmHg 17%
    17:00 +45°C° 0 mm 2 m/s 720 mmHg 17%
    18:00 +43°C° 0 mm 2 m/s 720 mmHg 18%
    19:00 +43°C° 0 mm 1 m/s 720 mmHg 19%
    20:00 +42°C° 0 mm 1 m/s 721 mmHg 20%
    21:00 +41°C° 0 mm 1 m/s 721 mmHg 20%
    22:00 +40°C° 0 mm 2 m/s 721 mmHg 21%
    23:00 +39°C° 0 mm 2 m/s 722 mmHg 21%

    25 Junho, Segunda-feira

    Tempo Temperatura Precipitação Vento Pressão Humidade
    00:00 +38°C° 0 mm 2 m/s 721 mmHg 20%
    01:00 +38°C° 0 mm 3 m/s 721 mmHg 19%
    02:00 +37°C° 0 mm 3 m/s 721 mmHg 18%
    03:00 +36°C° 0 mm 3 m/s 721 mmHg 18%
    04:00 +35°C° 0 mm 3 m/s 721 mmHg 19%
    05:00 +35°C° 0 mm 3 m/s 720 mmHg 19%
    06:00 +36°C° 0 mm 3 m/s 721 mmHg 17%
    07:00 +37°C° 0 mm 4 m/s 721 mmHg 15%
    08:00 +38°C° 0 mm 4 m/s 721 mmHg 13%
    09:00 +40°C° 0 mm 4 m/s 721 mmHg 12%
    10:00 +42°C° 0 mm 4 m/s 721 mmHg 11%
    11:00 +43°C° 0 mm 4 m/s 721 mmHg 10%
    12:00 +44°C° 0 mm 3 m/s 720 mmHg 9%
    13:00 +45°C° 0 mm 3 m/s 720 mmHg 9%
    14:00 +46°C° 0 mm 2 m/s 720 mmHg 9%
    15:00 +46°C° 0 mm 2 m/s 719 mmHg 9%
    16:00 +46°C° 0 mm 2 m/s 719 mmHg 9%
    17:00 +45°C° 0 mm 1 m/s 719 mmHg 9%
    18:00 +44°C° 0 mm 1 m/s 719 mmHg 10%
    19:00 +43°C° 0 mm 1 m/s 719 mmHg 12%
    20:00 +42°C° 0 mm 1 m/s 720 mmHg 13%
    21:00 +41°C° 0 mm 1 m/s 720 mmHg 13%
    22:00 +40°C° 0 mm 2 m/s 720 mmHg 14%
    23:00 +39°C° 0 mm 2 m/s 720 mmHg 14%

    26 Junho, Terça-feira

    Tempo Temperatura Precipitação Vento Pressão Humidade
    00:00 +39°C° 0 mm 2 m/s 720 mmHg 14%
    01:00 +38°C° 0 mm 2 m/s 720 mmHg 14%
    02:00 +37°C° 0 mm 3 m/s 720 mmHg 14%
    03:00 +36°C° 0 mm 3 m/s 720 mmHg 15%
    04:00 +36°C° 0 mm 3 m/s 720 mmHg 16%
    05:00 +35°C° 0 mm 3 m/s 720 mmHg 16%
    06:00 +36°C° 0 mm 3 m/s 720 mmHg 15%
    07:00 +37°C° 0 mm 3 m/s 720 mmHg 14%
    08:00 +38°C° 0 mm 3 m/s 720 mmHg 13%
    09:00 +40°C° 0 mm 3 m/s 720 mmHg 12%
    10:00 +42°C° 0 mm 3 m/s 720 mmHg 11%
    11:00 +44°C° 0 mm 3 m/s 720 mmHg 10%
    12:00 +45°C° 0 mm 3 m/s 720 mmHg 9%
    13:00 +45°C° 0 mm 2 m/s 720 mmHg 9%
    14:00 +46°C° 0 mm 2 m/s 719 mmHg 9%
    15:00 +46°C° 0 mm 2 m/s 719 mmHg 9%
    16:00 +46°C° 0 mm 2 m/s 719 mmHg 9%
    17:00 +47°C° 0 mm 2 m/s 718 mmHg 9%
    18:00 +46°C° 0 mm 2 m/s 719 mmHg 10%
    19:00 +44°C° 0 mm 1 m/s 719 mmHg 12%
    20:00 +43°C° 0 mm 1 m/s 719 mmHg 14%
    21:00 +42°C° 0 mm 1 m/s 720 mmHg 14%
    22:00 +41°C° 0 mm 1 m/s 720 mmHg 14%
    23:00 +41°C° 0 mm 1 m/s 720 mmHg 15%
    Mostrar mais